Tracking 31027 objects as of 18-Jul-2025
HD Live streaming from Space Station
objects crossing your sky now

BREEZE-M R/B

Track BREEZE-M R/B now!


NORAD ID: 28360
Int'l Code: 2004-022C
Perigee: 4,379.7 km
Apogee: 35,840.4 km
Inclination: 23.3 °
Period: 714.8 minutes
Semi major axis: 26481 km
RCS: 6.6176 m2 (large)
Launch date: June 16, 2004
Source: Commonwealth of Independent States (former USSR) (CIS)
Launch site: TYURATAM MISSILE AND SPACE COMPLEX (TTMTR)

Note: This is a ROCKET BODY
Your satellite tracking list
Your tracking list is empty




NASA's NSSDC Master Catalog

Two Line Element Set (TLE):
1 28360U 04022C   25198.61722149  .00000258  00000-0  00000-0 0  9999
2 28360  23.3432 143.6045 5940243 243.4335  45.1609  2.01465315154611
Source of the keplerian elements: AFSPC